Tracking 35331 objects as of 14-Sep-2026
HD Live streaming from Space Station
objects crossing your sky now

CZ-3A R/B


CZ-3A R/B is no longer on orbit


NORAD ID: 37235
Int'l Code: 2010-064B
Launch date: November 24, 2010
Source: People's Republic of China (PRC)
Launch site: Xichang Space Center, China (XSC)
Decay date: 2021-02-14

Note: This is a ROCKET BODY
Your satellite tracking list
Your tracking list is empty




NASA's NSSDC Master Catalog

Two Line Element Set (TLE):
1 37235U 10064B   21044.85195637  .35433715 -14573-4  29697-3 0  9998
2 37235  24.0710 298.2018 0182269 111.0780 324.5149 16.18981788137659
Source of the keplerian elements: AFSPC